Home > Weather > Chania > Past weeks

Flag for Greece Weather for the Past 2 Weeks in Chania, Crete, Greece

Now
54 °F

Passing clouds.


Feels Like: 54 °F
Forecast: 53 / 73 °F
Wind: No wind

Location: Souda Airport

Current Time: May 6, 2016 at 3:06:17 AM

Latest Report: May 6, 2016 at 2:20 AM


Visibility: N/A

Pressure: 29.95 "Hg

Humidity: 94%

Dew Point: 52 °F

Location of ChaniaLocation

Historic Weather in Chania — Graph

°F

Chania Temperature Yesterday

Maximum temperature yesterday: 68 °F (at 12:50 PM)
Minimum temperature yesterday: 55 °F (at 12:20 AM)
Average temperature yesterday: 60 °F

High & Low Weather Summary for the Past Weeks

 TemperatureHumidityPressure
High81 °F (Apr 29, 2:50 PM)100% (Apr 29, 6:50 AM)30.21 "Hg (Apr 29, 6:50 AM)
Low54 °F (Apr 27, 5:50 AM)27% (Apr 28, 10:50 AM)29.65 "Hg (Apr 24, 2:20 PM)
Average64 °F67%29.87 "Hg
* Reported Apr 21 1:20 AM — May 6 1:50 AM, Chania, Weather by CustomWeather, © 2016

Note: Actual official high and low records may vary slightly from our data, if they occured in-between our weather recording intervals... More about our weather records

Advertising

Chania Weather History for the Previous 24 Hours

Scroll right to see more
 ConditionsComfort  
Time TempWeatherWind HumidityBarometerVisibility
1:50 AM
Fri, May 6
54 °FPassing clouds.No wind94%29.95 "HgN/A
1:20 AM54 °FPassing clouds.No wind94%29.95 "HgN/A
12:50 AM54 °FPassing clouds.No wind94%29.95 "HgN/A
12:20 AM55 °FPassing clouds.No wind88%29.95 "HgN/A
11:50 PM
Thu, May 5
55 °FPassing clouds.No wind88%29.95 "HgN/A
11:20 PM55 °FPassing clouds.5 mph82%29.95 "HgN/A
10:50 PM55 °FPassing clouds.5 mph82%29.95 "HgN/A
10:20 PM57 °FPassing clouds.5 mph82%29.95 "HgN/A
9:50 PM57 °FPassing clouds.5 mph82%29.95 "HgN/A
9:20 PM57 °FPassing clouds.5 mph82%29.92 "HgN/A
8:50 PM57 °FScattered clouds.5 mph82%29.92 "HgN/A
8:20 PM61 °FScattered clouds.5 mph77%29.89 "HgN/A
7:20 PM61 °FScattered clouds.7 mph72%29.89 "HgN/A
6:20 PM63 °FPartly sunny.7 mph73%29.89 "HgN/A
5:50 PM63 °FPartly sunny.7 mph73%29.89 "HgN/A
5:20 PM61 °FBroken clouds.5 mph77%29.89 "HgN/A
4:50 PM61 °FBroken clouds.7 mph77%29.89 "HgN/A
4:20 PM63 °FBroken clouds.9 mph73%29.89 "HgN/A
3:50 PM63 °FBroken clouds.7 mph73%29.89 "HgN/A
3:20 PM61 °FLight rain. Partly sunny.12 mph94%29.86 "Hg5 mi
2:50 PM63 °FThunderstorms. Partly sunny.9 mph73%29.86 "HgN/A
2:20 PM64 °FPartly sunny.9 mph68%29.86 "HgN/A
1:50 PM64 °FPartly sunny.12 mph68%29.86 "HgN/A
1:20 PM68 °FPartly sunny.14 mph60%29.86 "HgN/A
12:50 PM68 °FPartly sunny.14 mph60%29.86 "HgN/A
12:20 PM66 °FPartly sunny.12 mph64%29.86 "HgN/A
11:50 AM66 °FPartly sunny.12 mph64%29.86 "HgN/A
10:50 AM64 °FScattered clouds.12 mph68%29.83 "HgN/A
10:20 AM64 °FScattered clouds.12 mph68%29.83 "HgN/A
9:50 AM64 °FScattered clouds.12 mph68%29.83 "HgN/A
9:20 AM63 °FScattered clouds.14 mph73%29.80 "HgN/A
8:50 AM61 °FScattered clouds.14 mph72%29.80 "HgN/A
8:20 AM59 °FScattered clouds.14 mph82%29.80 "HgN/A
7:50 AM59 °FScattered clouds.9 mph82%29.80 "HgN/A
7:20 AM57 °FPassing clouds.6 mph88%29.77 "HgN/A
6:50 AM57 °FPassing clouds.6 mph88%29.77 "HgN/A
6:20 AM57 °FPassing clouds.10 mph88%29.77 "HgN/A
5:50 AM57 °FPassing clouds.9 mph77%29.77 "HgN/A
5:20 AM57 °FPassing clouds.9 mph77%29.77 "HgN/A
4:50 AM57 °FPassing clouds.12 mph77%29.80 "HgN/A
4:20 AM61 °FPassing clouds.12 mph55%29.80 "HgN/A
3:50 AM57 °FPassing clouds.10 mph77%29.80 "HgN/A
3:20 AM57 °FPassing clouds.12 mph77%29.80 "HgN/A
Weather by CustomWeather, © 2016

See weather overviewHow to use our weather pages